Location: Goudex
(43.3760°N, 0.9543°E)
Time: 15:19:40
(UTC+00:00)

Cosmos 1500 Rocket - Pass Details

Date: 20 November 2019
Orbit: 602 x 632 km, 82.5° (Epoch: 06 December)

Event Time Altitude Azimuth Distance (km) Brightness Sun altitude
Rises 05:43:38 0° 195° (SSW) 2,910 7.0 -13.0°
Reaches altitude 10° 05:45:53 10° 199° (SSW) 2,005 6.1 -12.6°
Maximum altitude 05:50:17 61° 280° (W) 716 3.6 -11.8°
Drops below altitude 10° 05:54:42 10° 1° (N) 2,007 6.0 -11.1°
Sets 05:56:58 0° 5° (N) 2,914 6.9 -10.7°
